Location: *
(28.2600°S, 63.4530°W)
Time: 14:43:06
(UTC+00:00)

Daily predictions for brighter satellites

Satellite Brightness Start Highest point End
(mag) Time Altitude Azimuth Time Altitude Azimuth Time Altitude Azimuth
COSMOS 2428 3.2 23:28:23 10° SSW 23:34:02 63° WNW 23:39:37 10° N
Cosmos 2219 Rocket 2.2 23:29:55 10° SSW 23:35:34 80° ESE 23:41:09 10° NNE
Cosmos 2082 3.9 23:36:02 10° NNW 23:41:42 80° WSW 23:47:27 10° SSE
Cosmos 1356 Rocket 4.3 23:43:40 10° SSW 23:47:46 52° W 23:51:44 10° N
Cosmos 921 Rocket 3.1 23:43:58 10° S 23:48:29 70° ESE 23:52:53 10° NNE
CZ-2D R/B 4.2 23:45:47 10° SE 23:49:13 29° E 23:52:37 10° NNE
Envisat 4.1 23:45:58 10° SE 23:50:06 24° E 23:54:12 10° NNE
Cosmos 2227 Rocket 3.4 23:46:26 10° NW 23:51:52 48° WSW 23:57:22 10° S
NOSS 0 Rocket 4.0 23:46:24 10° SSW 23:52:42 78° ESE 23:58:56 10° NNE
Cosmos 1805 4.1 23:52:54 10° NNE 23:56:20 30° E 23:59:48 10° SSE
